DMSP 5D-2 F13 DEB, 40437

Orbit data source: Space-Track

DMSP 5D-2 F13 DEB, 40437 is space debris in SSO originally from a launch on Fri, 24 Mar 1995 UTC launched from the Air Force Western Test Range (AFWTR). Debris objects in space refer to the collection of defunct objects orbiting the Earth. Examples of debris include non-operational satellites, rocket bodies, and fragments generated from explosions, collisions, or faulty payload assembly.

Loading next visibility...
DMSP 5D-2 F13 DEB details
Identifier
40437, 1995-015AP
Orbit
SSO
Last TLE update21 hours ago
Origin
Flag of USUSAF SMC (US)
ManufacturerUnknown
MissionSpacecraft
Bus & MotorUnknown
MassUnknown
Launch date (UTC)
1995-03-24 (30 years ago)
Launch vehicleUnknown
Launch site
Air Force Western Test Range (AFWTR)
Object type
Payload
Rocket body
Debris
Shape & HBRUnknown
Radar Cross SectionSmall (<0.1 m²)

Expand to show TLE details & history

TLE from 21 hours ago
0 DMSP 5D-2 F13 DEB
1 40437U 95015AP  24360.59420390  .00036440  00000-0  91048-2 0  9996
2 40437  98.6727  41.4926 0017170 320.1854  39.8079 14.51279734511279
Epoch: 2024-12-25T14:15Z
Definitive object data (Epoch: 2024-12-25T14:15:39.216Z)
Latitude-0.00006°
Longitude92.9935°
Altitude715.073 km
Speed7.503 km/s
True Right ascension02h 45m 58s
True Declination0° 00' 00"
Sunlit
Object was in full shadow at TLE epoch
Visualization TLE readout
Latitude11.44077°
Longitude-84.36079°
Altitude733.93 km
Speed7.483 km/s
Apparent Right ascension17h 40m 04s
Apparent Declination-20° 43' 19"
Sunlit
Object is in daylight
Visualization observer readout
Local Sidereal Time10:14:42
Azimuth93.48° ESE
Elevation-29.215°
Doppler factor1
Orbital elements
Apogee altitude730.772 km
Perigee altitude706.402 km
Semi-major axis7,096.724 km
Eccentricity0.001717
Inclination98.6727°
RAAN41.4926°
Arg. of periapsis320.1854°
True anomaly39.93407°
Mean anomaly39.8079°
Eccentric anomaly39.87097°
Mean motion3.63042 °/min
BSTAR0.0091048
Orbital period99.16 mins
Loading maneuver chart data...

DMSP 5D-2 F13 DEB Visibility forecast

Observer location: undefined°, undefined

Span
Click to sort rows by Start time (UTC) header in descending order
Start Az.
Max El. time (UTC)
Max El. Az.
Max El.
End time (UTC)
End Az.
8 mins2024-12-26 15:39:27.417Z21.427° NNE2024-12-26 15:43:27.417Z100.773° ESE42.315°2024-12-26 15:47:27.417Z182.488° SSW
4 mins2024-12-26 17:19:27.417Z318.588° NNW2024-12-26 17:21:27.417Z291.546° WNW14.023°2024-12-26 17:23:27.417Z266.956° W
8 mins2024-12-27 02:47:27.417Z157.248° SSE2024-12-27 02:51:27.417Z24.479° NE42.745°2024-12-27 02:55:27.417Z350.394° N
|